Bloomington, IN

7:45 AM EDT on April 27, 2017 (GMT -0400)
Monroe County

Weather History for KBMG - February, 2015

Change the Weather History Date:

Monday, February 2, 2015

  Actual Average Record
Temperature  
Mean Temperature 26 °F 30 °F  
Max Temperature 34 °F 40 °F 62 °F (2016)
Min Temperature 17 °F 21 °F 6 °F (2001)
Degree Days  
Heating Degree Days 39 35  
Month to date heating degree days 66 70  
Since 1 July heating degree days 3397 3245  
Cooling Degree Days 0 0  
Month to date cooling degree days 0 0  
Year to date cooling degree days 0 0  
Moisture  
Dew Point 16 °F    
Average Humidity 82    
Maximum Humidity 96    
Minimum Humidity 68    
Precipitation  
Precipitation T in 0.10 in 0.81 in (2006)
Month to date precipitation 0.39 0.20  
Year to date precipitation 2.60 3.51  
Sea Level Pressure  
Sea Level Pressure 30.08 in    
Wind  
Wind Speed 8 mph (WNW)    
Max Wind Speed 18 mph    
Max Gust Speed 29 mph    
Visibility 8 miles    
Events Snow    
T = Trace of Precipitation, MM = Missing Value Source: NWS Daily Summary

Daily Weather History Graph

Daily Weather History Graph

Search for Another Location

Airport or City:

Trip Planner

Search our weather history database for the weather conditions in past years. The results will help you decide how hot, cold, wet, or windy it might be!

Date:

Astronomy

Feb. 02, 2015 Rise Set
Actual Time 7:52 AM EST 6:08 PM EST
Civil Twilight 7:24 AM EST 6:36 PM EST
Nautical Twilight 6:52 AM EST 7:08 PM EST
Astronomical Twilight 6:20 AM EST 7:39 PM EST
Moon 5:19 PM EST (2/2) 6:42 AM EST (2/2)
Length of Visible Light 11h 12m
Length of Day
10h 15m
Waxing Gibbous, 99% of the Moon is Illuminated
Feb 2
Waxing Gibbous
Feb 3
Full
Feb 11
Last Quarter
Feb 18
New
Feb 25
First Quarter

Hourly Weather History & Observations

Time (EST) Temp. Windchill Dew Point Humidity Pressure Visibility Wind Dir Wind Speed Gust Speed Precip Events Conditions
12:53 AM 33.1 °F 24.4 °F 30.9 °F 92% 29.67 in 2.5 mi WNW 11.5 mph 19.6 mph 0.00 in Snow Light Snow
1:12 AM 30.9 °F 21.2 °F 28.0 °F 89% 29.67 in 6.0 mi WNW 12.7 mph 23.0 mph 0.00 in Snow Light Snow
1:21 AM 30.0 °F 19.5 °F 27.0 °F 88% 29.68 in 10.0 mi WNW 13.8 mph 20.7 mph 0.00 in   Overcast
1:53 AM 28.0 °F 18.1 °F 26.1 °F 92% 29.73 in 10.0 mi WNW 11.5 mph 21.9 mph 0.00 in   Overcast
2:04 AM 27.0 °F 16.7 °F 24.1 °F 89% 29.72 in 10.0 mi NW 11.5 mph - N/A   Overcast
2:15 AM 26.1 °F 15.6 °F 21.9 °F 84% 29.73 in 10.0 mi NW 11.5 mph 23.0 mph N/A   Overcast
2:53 AM 24.1 °F 14.4 °F 19.0 °F 81% 29.79 in 7.0 mi NW 9.2 mph 19.6 mph 0.00 in Snow Light Snow
3:20 AM 21.9 °F 9.8 °F 17.1 °F 82% 29.79 in 9.0 mi NW 12.7 mph 21.9 mph 0.00 in   Overcast
3:53 AM 21.0 °F 11.4 °F 15.1 °F 78% 29.84 in 10.0 mi NW 8.1 mph 24.2 mph 0.00 in   Overcast
4:53 AM 19.9 °F 9.3 °F 14.0 °F 78% 29.88 in 9.0 mi NNW 9.2 mph 19.6 mph 0.00 in Snow Light Snow
5:53 AM 19.9 °F 7.3 °F 12.9 °F 74% 29.92 in 8.0 mi NNW 12.7 mph 25.3 mph 0.00 in Snow Light Snow
6:53 AM 19.0 °F 5.0 °F 10.9 °F 71% 29.98 in 10.0 mi NW 15.0 mph 25.3 mph 0.00 in   Overcast
7:16 AM 18.0 °F 6.1 °F 10.9 °F 74% 29.98 in 10.0 mi NNW 10.4 mph 28.8 mph N/A   Overcast
7:30 AM 18.0 °F 7.7 °F 10.9 °F 74% 29.99 in 10.0 mi NNW 8.1 mph 17.3 mph N/A   Overcast
7:53 AM 19.0 °F 9.0 °F 12.9 °F 77% 30.04 in 6.0 mi NNW 8.1 mph - 0.00 in Snow Light Snow
8:18 AM 19.0 °F 10.0 °F 14.0 °F 81% 30.03 in 2.0 mi WNW 6.9 mph - 0.00 in Snow Light Snow
8:26 AM 19.0 °F 11.1 °F 15.1 °F 85% 30.04 in 1.5 mi NW 5.8 mph - 0.00 in Snow Light Snow
8:44 AM 19.9 °F 10.1 °F 15.1 °F 81% 30.05 in 2.5 mi WNW 8.1 mph 19.6 mph 0.00 in Snow Light Snow
8:53 AM 19.9 °F 7.9 °F 14.0 °F 78% 30.09 in 3.0 mi NW 11.5 mph 21.9 mph 0.00 in Snow Light Snow
9:15 AM 19.9 °F 8.6 °F 14.0 °F 78% 30.08 in 2.0 mi WNW 10.4 mph 21.9 mph 0.00 in Snow Light Snow
9:28 AM 18.0 °F 4.8 °F 14.0 °F 84% 30.10 in 1.5 mi WNW 12.7 mph - 0.00 in Snow Light Snow
9:53 AM 17.1 °F 2.5 °F 12.9 °F 84% 30.15 in 1.5 mi West 15.0 mph - 0.00 in Snow Light Snow
10:07 AM 17.1 °F 5.8 °F 12.9 °F 84% 30.12 in 2.5 mi WNW 9.2 mph - 0.00 in Snow Light Snow
10:39 AM 18.0 °F 6.1 °F 12.0 °F 78% 30.15 in 4.0 mi NW 10.4 mph 18.4 mph 0.00 in Snow Light Snow
10:53 AM 18.0 °F 6.1 °F 12.9 °F 81% 30.19 in 5.0 mi WNW 10.4 mph 20.7 mph 0.00 in Snow Light Snow
11:53 AM 21.9 °F 13.4 °F 14.0 °F 72% 30.20 in 10.0 mi Variable 6.9 mph - 0.00 in   Overcast
12:07 PM 21.9 °F 13.4 °F 14.0 °F 72% 30.18 in 10.0 mi Variable 6.9 mph - N/A   Overcast
12:26 PM 23.0 °F 11.1 °F 15.1 °F 72% 30.18 in 10.0 mi North 12.7 mph 16.1 mph N/A   Mostly Cloudy
12:53 PM 25.0 °F 16.3 °F 15.1 °F 66% 30.20 in 10.0 mi NNW 8.1 mph - N/A   Overcast
1:53 PM 25.0 °F 16.3 °F 16.0 °F 69% 30.20 in 10.0 mi NW 8.1 mph - N/A   Overcast
2:53 PM 24.1 °F 16.0 °F 15.1 °F 69% 30.21 in 10.0 mi NW 6.9 mph - N/A   Overcast
3:31 PM 24.1 °F 13.7 °F 16.0 °F 71% 30.19 in 10.0 mi West 10.4 mph 17.3 mph N/A   Overcast
3:53 PM 24.1 °F 16.0 °F 15.1 °F 69% 30.23 in 10.0 mi Variable 6.9 mph - N/A   Overcast
4:53 PM 24.1 °F 16.0 °F 15.1 °F 69% 30.24 in 10.0 mi WNW 6.9 mph - N/A   Overcast
5:02 PM 24.1 °F 16.0 °F 15.1 °F 69% 30.21 in 9.0 mi West 6.9 mph - N/A   Overcast
5:51 PM 23.0 °F 15.8 °F 14.0 °F 68% 30.22 in 10.0 mi West 5.8 mph - N/A   Overcast
5:53 PM 23.0 °F 17.0 °F 14.0 °F 68% 30.26 in 10.0 mi West 4.6 mph - N/A   Overcast
6:53 PM 23.0 °F 14.7 °F 15.1 °F 72% 30.28 in 7.0 mi West 6.9 mph - 0.00 in Snow Light Snow
7:10 PM 21.9 °F 14.5 °F 15.1 °F 75% 30.25 in 7.0 mi WNW 5.8 mph - 0.00 in Snow Light Snow
7:53 PM 21.9 °F 14.5 °F 14.0 °F 72% 30.30 in 10.0 mi WNW 5.8 mph - 0.00 in   Overcast
8:53 PM 21.9 °F 17.2 °F 14.0 °F 72% 30.31 in 10.0 mi NW 3.5 mph - N/A   Overcast
9:06 PM 21.9 °F 17.2 °F 14.0 °F 72% 30.28 in 10.0 mi West 3.5 mph - N/A   Overcast
9:53 PM 21.9 °F 15.7 °F 14.0 °F 72% 30.31 in 10.0 mi WSW 4.6 mph - N/A   Overcast
10:35 PM 21.0 °F 16.2 °F 15.1 °F 78% 30.26 in 10.0 mi SSW 3.5 mph - N/A   Scattered Clouds
10:53 PM 21.0 °F 16.2 °F 15.1 °F 78% 30.29 in 10.0 mi SSW 3.5 mph - N/A   Clear
11:53 PM 21.0 °F 16.2 °F 15.1 °F 78% 30.29 in 10.0 mi WSW 3.5 mph - N/A   Clear